Terminal Aerodrome Forecast
Issued by NWS

Home | Current Version | Previous Version | Text Only | Print | Product List | Glossary On
Versions: 1 2 3 4 5 6 7 8 9 10 11 12 13 14 15 16 17 18 19 20 21 22 23 24 25 26 27 28 29 30 31 32 33 34 35 36 37 38 39 40 41 42 43 44 45 46 47 48 49 50
000
FTAK31 PANC 231335 AAA
TAFASN
TAF AMD
PASN 231335Z 2314/2412 09015KT 6SM -RA BR FEW015 BKN025 OVC035
     FM231500 10012KT 3SM BR OVC004
     FM240200 18010KT P6SM -SHRA BKN006=

USA.gov is the U.S. government's official web portal to all federal, state and local government web resources and services.